Tracking 29892 objects as of 21-Nov-2024
HD Live streaming from Space Station
objects crossing your sky now

ARIANE 44LP DEB

Track ARIANE 44LP DEB now!
10-day predictions


NORAD ID: 25844
Int'l Code: 1989-062H
Perigee: 333.9 km
Apogee: 26,770.4 km
Inclination: 7.7 °
Period: 466.4 minutes
Semi major axis: 19923 km
RCS: 0.6448 m2 (medium)
Launch date: August 8, 1989
Source: France (FR)
Launch site: FRENCH GUIANA (FRGUI)

Note: This is SATELLITE DEBRIS
Your satellite tracking list
Your tracking list is empty




NASA's NSSDC Master Catalog

Two Line Element Set (TLE):
1 25844U 89062H   24325.58610360  .00026599  00000-0  16706-1 0  9995
2 25844   7.6786 346.3476 6634622 259.3175  24.9798  3.08720865265778
Source of the keplerian elements: AFSPC